Hourly Weather Rudnica

Today, 14 April, Wednesday

Time Temperature Precipitation Wind Pressure Humidity
00:00 0°C° 0.3 mm 5 mps 752 mmHg 95%
01:00 0°C° 0.3 mm 5 mps 752 mmHg 95%
02:00 0°C° 0 mm 5 mps 752 mmHg 95%
03:00 0°C° 0.2 mm 5 mps 751 mmHg 95%
04:00 -1°C° 0.2 mm 5 mps 751 mmHg 95%
05:00 -1°C° 0.2 mm 5 mps 751 mmHg 96%
06:00 -1°C° 0.3 mm 5 mps 751 mmHg 95%
07:00 -1°C° 0.3 mm 5 mps 751 mmHg 95%
08:00 -1°C° 0.3 mm 5 mps 751 mmHg 95%
09:00 -1°C° 0.6 mm 5 mps 751 mmHg 96%
10:00 -2°C° 0.6 mm 6 mps 751 mmHg 96%
11:00 -2°C° 0.6 mm 6 mps 750 mmHg 96%
12:00 -2°C° 0.9 mm 6 mps 750 mmHg 97%
13:00 -1°C° 0.9 mm 6 mps 750 mmHg 97%
14:00 -1°C° 0.9 mm 6 mps 750 mmHg 97%
15:00 -1°C° 0.4 mm 6 mps 750 mmHg 97%
16:00 -1°C° 0.4 mm 6 mps 750 mmHg 97%
17:00 -1°C° 0.4 mm 6 mps 750 mmHg 97%
18:00 -1°C° 0.3 mm 6 mps 750 mmHg 97%
19:00 -1°C° 0.3 mm 6 mps 750 mmHg 97%
20:00 0°C° 0.3 mm 5 mps 750 mmHg 97%
21:00 0°C° 0.5 mm 5 mps 749 mmHg 97%
22:00 0°C° 0.5 mm 5 mps 749 mmHg 97%
23:00 0°C° 0.5 mm 5 mps 749 mmHg 97%

Tomorrow, 15 April, Thursday

Time Temperature Precipitation Wind Pressure Humidity
00:00 0°C° 0.4 mm 5 mps 749 mmHg 97%
01:00 0°C° 0.4 mm 4 mps 748 mmHg 98%
02:00 +1°C° 0.4 mm 4 mps 748 mmHg 98%
03:00 +1°C° 0.2 mm 4 mps 748 mmHg 98%
04:00 +1°C° 0.2 mm 4 mps 748 mmHg 98%
05:00 +1°C° 0.2 mm 4 mps 748 mmHg 97%
06:00 +3°C° 0.3 mm 4 mps 748 mmHg 97%
07:00 +3°C° 0.3 mm 4 mps 748 mmHg 97%
08:00 +3°C° 0.3 mm 4 mps 748 mmHg 97%
09:00 +3°C° 0.2 mm 4 mps 748 mmHg 97%
10:00 +4°C° 0.2 mm 4 mps 749 mmHg 97%
11:00 +4°C° 0.2 mm 4 mps 749 mmHg 97%
12:00 +4°C° 0.3 mm 3 mps 749 mmHg 97%
13:00 +5°C° 0.3 mm 3 mps 749 mmHg 97%
14:00 +6°C° 0.3 mm 2 mps 749 mmHg 96%
15:00 +5°C° 0.2 mm 3 mps 749 mmHg 95%
16:00 +5°C° 0.2 mm 3 mps 749 mmHg 95%
17:00 +5°C° 0.2 mm 4 mps 749 mmHg 94%
18:00 +4°C° 0 mm 4 mps 750 mmHg 94%
19:00 +4°C° 0 mm 4 mps 750 mmHg 94%
20:00 +3°C° 0 mm 4 mps 750 mmHg 95%
21:00 +3°C° 0 mm 3 mps 750 mmHg 95%
22:00 +3°C° 0 mm 3 mps 750 mmHg 95%
23:00 +3°C° 0 mm 3 mps 749 mmHg 96%

Day after tomorrow, 16 April, Friday

Time Temperature Precipitation Wind Pressure Humidity
00:00 +3°C° 0.1 mm 3 mps 749 mmHg 96%
01:00 +3°C° 0.1 mm 3 mps 749 mmHg 96%
02:00 +3°C° 0.1 mm 3 mps 749 mmHg 97%
03:00 +3°C° 0.1 mm 3 mps 749 mmHg 97%
04:00 +3°C° 0.1 mm 3 mps 748 mmHg 97%
05:00 +3°C° 0.1 mm 3 mps 748 mmHg 97%
06:00 +4°C° 0.1 mm 3 mps 748 mmHg 97%
07:00 +4°C° 0.1 mm 3 mps 748 mmHg 97%
08:00 +4°C° 0.1 mm 3 mps 748 mmHg 97%
09:00 +4°C° 0.2 mm 4 mps 748 mmHg 96%
10:00 +5°C° 0.2 mm 4 mps 749 mmHg 96%
11:00 +5°C° 0.2 mm 4 mps 749 mmHg 95%
12:00 +6°C° 0 mm 4 mps 749 mmHg 92%
13:00 +7°C° 0 mm 4 mps 749 mmHg 90%
14:00 +8°C° 0 mm 4 mps 749 mmHg 87%
15:00 +8°C° 0 mm 4 mps 749 mmHg 88%
16:00 +8°C° 0 mm 4 mps 749 mmHg 89%
17:00 +8°C° 0 mm 4 mps 750 mmHg 90%
18:00 +7°C° 0 mm 4 mps 750 mmHg 91%
19:00 +7°C° 0 mm 4 mps 750 mmHg 92%
20:00 +7°C° 0 mm 4 mps 750 mmHg 93%
21:00 +7°C° 0 mm 4 mps 750 mmHg 94%
22:00 +6°C° 0 mm 4 mps 750 mmHg 94%
23:00 +6°C° 0 mm 4 mps 750 mmHg 95%

17 April, Saturday

Time Temperature Precipitation Wind Pressure Humidity
00:00 +6°C° 0.6 mm 4 mps 750 mmHg 96%
01:00 +6°C° 0.6 mm 4 mps 750 mmHg 96%
02:00 +6°C° 0.6 mm 4 mps 750 mmHg 97%
03:00 +6°C° 0.1 mm 4 mps 750 mmHg 97%
04:00 +6°C° 0.1 mm 4 mps 751 mmHg 97%
05:00 +7°C° 0.1 mm 3 mps 751 mmHg 97%
06:00 +8°C° 0 mm 3 mps 751 mmHg 93%
07:00 +8°C° 0 mm 3 mps 751 mmHg 90%
08:00 +9°C° 0 mm 3 mps 751 mmHg 87%
09:00 +10°C° 0.1 mm 3 mps 751 mmHg 79%
10:00 +11°C° 0.1 mm 4 mps 751 mmHg 72%
11:00 +13°C° 0.1 mm 4 mps 751 mmHg 64%
12:00 +13°C° 0.5 mm 4 mps 751 mmHg 65%
13:00 +13°C° 0.5 mm 4 mps 751 mmHg 66%
14:00 +13°C° 0.5 mm 4 mps 751 mmHg 66%
15:00 +12°C° 0.3 mm 4 mps 751 mmHg 66%
16:00 +12°C° 0.3 mm 4 mps 752 mmHg 66%
17:00 +12°C° 0.3 mm 5 mps 752 mmHg 66%
18:00 +11°C° 0 mm 4 mps 752 mmHg 73%
19:00 +9°C° 0 mm 3 mps 752 mmHg 79%
20:00 +8°C° 0 mm 2 mps 753 mmHg 86%
21:00 +8°C° 0 mm 2 mps 753 mmHg 88%
22:00 +7°C° 0 mm 2 mps 753 mmHg 90%
23:00 +7°C° 0 mm 2 mps 753 mmHg 92%

18 April, Sunday

Time Temperature Precipitation Wind Pressure Humidity
00:00 +6°C° 0.1 mm 2 mps 753 mmHg 93%
01:00 +6°C° 0.1 mm 2 mps 753 mmHg 94%
02:00 +6°C° 0.1 mm 2 mps 753 mmHg 95%
03:00 +6°C° 0 mm 2 mps 753 mmHg 94%
04:00 +6°C° 0 mm 2 mps 753 mmHg 94%
05:00 +6°C° 0 mm 2 mps 753 mmHg 94%
06:00 +6°C° 0 mm 2 mps 753 mmHg 91%
07:00 +7°C° 0 mm 2 mps 753 mmHg 88%
08:00 +8°C° 0 mm 2 mps 753 mmHg 85%
09:00 +9°C° 0 mm 2 mps 753 mmHg 77%
10:00 +10°C° 0 mm 2 mps 753 mmHg 69%
11:00 +12°C° 0 mm 3 mps 753 mmHg 61%
12:00 +12°C° 0 mm 3 mps 753 mmHg 60%
13:00 +13°C° 0 mm 3 mps 753 mmHg 58%
14:00 +13°C° 0 mm 3 mps 753 mmHg 56%
15:00 +13°C° 0 mm 3 mps 753 mmHg 61%
16:00 +12°C° 0 mm 3 mps 753 mmHg 67%
17:00 +12°C° 0 mm 3 mps 753 mmHg 72%
18:00 +11°C° 0.3 mm 3 mps 753 mmHg 78%
19:00 +11°C° 0.3 mm 3 mps 753 mmHg 85%
20:00 +10°C° 0.3 mm 2 mps 753 mmHg 91%
21:00 +10°C° 0.3 mm 3 mps 753 mmHg 91%
22:00 +9°C° 0.3 mm 3 mps 753 mmHg 91%
23:00 +9°C° 0.3 mm 3 mps 753 mmHg 90%

19 April, Monday

Time Temperature Precipitation Wind Pressure Humidity
00:00 +9°C° 0 mm 3 mps 753 mmHg 91%
01:00 +8°C° 0 mm 3 mps 753 mmHg 91%
02:00 +8°C° 0 mm 3 mps 753 mmHg 91%
03:00 +8°C° 0 mm 3 mps 753 mmHg 90%
04:00 +8°C° 0 mm 3 mps 753 mmHg 89%
05:00 +7°C° 0 mm 4 mps 753 mmHg 88%
06:00 +7°C° 0 mm 4 mps 753 mmHg 87%
07:00 +7°C° 0 mm 4 mps 753 mmHg 85%
08:00 +8°C° 0 mm 4 mps 753 mmHg 84%
09:00 +8°C° 0.2 mm 4 mps 753 mmHg 85%
10:00 +8°C° 0.2 mm 5 mps 754 mmHg 85%
11:00 +8°C° 0.2 mm 5 mps 754 mmHg 86%
12:00 +9°C° 0.1 mm 5 mps 753 mmHg 84%
13:00 +9°C° 0.1 mm 5 mps 753 mmHg 82%
14:00 +10°C° 0.1 mm 5 mps 753 mmHg 80%
15:00 +10°C° 0 mm 5 mps 753 mmHg 79%
16:00 +10°C° 0 mm 5 mps 753 mmHg 78%
17:00 +10°C° 0 mm 5 mps 753 mmHg 78%
18:00 +10°C° 0 mm 5 mps 753 mmHg 78%
19:00 +10°C° 0 mm 4 mps 752 mmHg 79%
20:00 +10°C° 0 mm 4 mps 752 mmHg 79%
21:00 +10°C° 0 mm 4 mps 752 mmHg 79%
22:00 +10°C° 0 mm 4 mps 752 mmHg 80%
23:00 +10°C° 0 mm 4 mps 752 mmHg 80%
Show more